Find Yaogan 32 hao 01 zu 01 xing

NORAD ID: 43642 Int'l Des: 2018-077 Owner: ZLZB Country: CN Constellation: yaogan operational
LEOCIRCULARRETROGRADESSO

当前视图

正在加载3D地球...

About Yaogan 32 hao 01 zu 01 xing

Yaogan 32 hao 01 zu 01 xing (NORAD 43642) is a yaogan constellation satellite launched Oct 9, 2018 by ZLZB of CN. It operates in LEO, CIRCULAR, RETROGRADE, SSO orbit with a mass of 500.00 kg.

关于 Yaogan 32 hao 01 zu 01 xing

正在加载描述...

即将过境

Passes for default location (London). Set your location on the main map for personalized predictions.

高度历史

Loading altitude history...

两行轨道根数

1 43642U 18077A 26195.20375759 .00000450 00000-0 96509-4 0 9995
2 43642 98.1468 223.4222 0001909 85.8613 274.2807 14.63208073413792
Epoch: Jul 14, 2026 • Age: 5 hours

当前状态

高度 693.5 km
远地点 / 近地点 N/A
速度 7.52 km/s
星下点 68.96°N, 21.61°W
发射日期 Oct 9, 2018
运行时间 7.7 years
类型 military

技术详情

分类 Payload
质量 500.00 kg
干质量 500.00 kg
总质量 500.00 kg
长度 0.50 m
直径 0.50 m
跨度 1.00 m
形状 Box + 2 Pan
制造商 SECM
阶段状态 In Orbit
所有者/国家 ZLZB/CN

Most Searched